TimeMST,TemperatureF,Dew PointF,Humidity,Sea Level PressureIn,VisibilityMPH,Wind Direction,Wind SpeedMPH,Gust SpeedMPH,PrecipitationIn,Events,Conditions,WindDirDegrees,DateUTC
12:28 AM,23.0,21.2,93,30.07,10.0,Calm,Calm,-,N/A,,Overcast,0,2012-12-30 07:28:00
12:39 AM,24.8,21.2,86,30.06,10.0,Calm,Calm,-,N/A,,Overcast,0,2012-12-30 07:39:00
12:46 AM,24.8,21.2,86,30.06,10.0,Calm,Calm,-,N/A,,Overcast,0,2012-12-30 07:46:00
12:53 AM,23.0,21.2,93,30.06,10.0,Calm,Calm,-,N/A,,Overcast,0,2012-12-30 07:53:00
12:55 AM,23.0,21.9,96,30.17,10.0,Calm,Calm,-,N/A,,Overcast,0,2012-12-30 07:55:00
1:06 AM,24.8,21.2,86,30.07,10.0,Calm,Calm,-,N/A,,Overcast,0,2012-12-30 08:06:00
1:55 AM,24.1,21.9,91,30.17,10.0,Calm,Calm,-,N/A,,Overcast,0,2012-12-30 08:55:00
2:55 AM,24.1,21.0,88,30.19,10.0,Calm,Calm,-,N/A,,Overcast,0,2012-12-30 09:55:00
3:55 AM,25.0,19.9,81,30.21,10.0,Calm,Calm,-,N/A,,Overcast,0,2012-12-30 10:55:00
4:55 AM,23.0,21.0,92,30.21,10.0,SSW,3.5,-,N/A,,Overcast,210,2012-12-30 11:55:00
5:55 AM,21.9,19.9,92,30.22,10.0,Calm,Calm,-,N/A,,Overcast,0,2012-12-30 12:55:00
6:55 AM,23.0,19.9,88,30.22,10.0,WNW,3.5,-,N/A,,Overcast,290,2012-12-30 13:55:00
8:55 AM,21.9,19.9,92,30.25,10.0,Calm,Calm,-,0.00,,Overcast,0,2012-12-30 15:55:00
9:55 AM,23.0,19.9,88,30.26,9.0,Calm,Calm,-,0.00,Snow,Light Snow,0,2012-12-30 16:55:00
10:55 AM,24.1,19.9,84,30.28,9.0,Calm,Calm,-,0.00,Snow,Light Snow,0,2012-12-30 17:55:00
11:55 AM,24.1,19.9,84,30.27,10.0,Calm,Calm,-,0.00,Snow,Light Snow,0,2012-12-30 18:55:00
12:55 PM,25.0,21.0,85,30.26,6.0,Calm,Calm,-,0.00,Snow,Light Snow,0,2012-12-30 19:55:00
1:55 PM,26.1,21.9,84,30.24,5.0,Calm,Calm,-,0.00,Snow,Light Snow,0,2012-12-30 20:55:00
2:55 PM,26.1,21.0,81,30.25,7.0,Calm,Calm,-,0.00,,Overcast,0,2012-12-30 21:55:00
3:55 PM,25.0,23.0,92,30.26,8.0,Calm,Calm,-,0.00,Snow,Light Snow,0,2012-12-30 22:55:00
4:55 PM,23.0,21.0,92,30.27,10.0,Calm,Calm,-,0.00,,Overcast,0,2012-12-30 23:55:00
5:55 PM,24.1,21.0,88,30.27,10.0,Calm,Calm,-,N/A,,Overcast,0,2012-12-31 00:55:00
6:55 PM,23.0,21.0,92,30.28,10.0,Calm,Calm,-,0.00,,Unknown,0,2012-12-31 01:55:00
7:55 PM,21.9,21.0,96,30.27,10.0,Calm,Calm,-,N/A,,Overcast,0,2012-12-31 02:55:00
8:55 PM,23.0,21.0,92,30.27,10.0,Calm,Calm,-,N/A,,Overcast,0,2012-12-31 03:55:00
9:55 PM,21.9,19.9,92,30.27,10.0,Calm,Calm,-,N/A,,Overcast,0,2012-12-31 04:55:00
10:55 PM,21.0,19.9,96,30.28,10.0,Calm,Calm,-,N/A,,Overcast,0,2012-12-31 05:55:00
11:56 PM,21.0,19.9,96,30.29,10.0,Calm,Calm,-,N/A,,Unknown,0,2012-12-31 06:56:00